Rbgn^[z[y[W
メイン
   新天体発見情報
     Comet C/2023 U1 (Fuls)
投稿するにはまず登録を

スレッド表示 | 古いものから 前のトピック | 次のトピック | 下へ
投稿者 スレッド
佐藤裕久
投稿日時: 2023-11-7 0:14
モデレータ
登録日: 2005-6-12
居住地: 日本
投稿: 2548
オンライン
Comet C/2023 U1 (Fuls)

David Carson Fuls (LPL 月惑星研究所, アリゾナ大学)の通報によると、10月16日、Mt Lemmon
サーベイの1.5-m反射望遠鏡で得た、CCD画像から彗星を発見した。
この彗星は、8".8のコマがあり、p.a. 345°に6".4の広い尾がある可能性がある。
小惑星センターのPCCP webpageに公表後、佐藤英貴氏(東京都文京区、10月16日, 60-秒露出12枚
のスタック, 0.51-m f/6.8 アストログラフ, Siding Spring, NSW, オーストラリア,遠隔 
操作:強く集光した尾のない10"のコマを見つけた。6".6の円形範囲で測定した光度は19.5等であ
った)によって彗星状と観測された。

発見位置は次のとおり、

     2023 UT             R.A. (2000) Decl.       Mag.   Observer
     Oct. 16.47712    8 01 38.66   -11 46 03.1   19.3   Fuls
          16.48186    8 01 38.62   -11 46 06.3   19.1     "
          16.48662    8 01 38.59   -11 46 09.1   19.4     "
          16.49137    8 01 38.56   -11 46 12.4   19.3     "
          16.51422    8 01 38.41   -11 46 26.9   19.6     "
          16.51498    8 01 38.40   -11 46 27.3   19.5     "
          16.51575    8 01 38.39   -11 46 27.8   19.7     "
          16.51651    8 01 38.39   -11 46 28.5   19.5     "

MPCの双曲線軌道要素、位置推算表は次のとおり、

Orbital elements:
    C/2023 U1 (Fuls)                                                            
Epoch 2023 Sept. 13.0 TT = JDT 2460200.5                                        
T 2024 Oct. 13.22729 TT                                 Rudenko                 
q   4.9559442            (2000.0)            P               Q                  
z  -0.0062098      Peri.  256.08423     +0.10465446     +0.62954471             
 +/-0.0045740      Node   305.86652     +0.70850510     -0.59045035             
e   1.0307752      Incl.  108.19063     -0.69790255     -0.50501667             
From 26 observations 2023 Oct. 16-29, mean residual 0".2.                       
                                                                                
Ephemeris:
Date    TT    R. A. (2000) Decl.     Delta      r    Elong.  Phase   m1
2023 09 30    08 01 46.6 -08 58 48   6.1080  5.7604    65.2     9.1  19.5
...
2023 10 15    08 01 46.9 -11 30 27   5.8325  5.7034    77.7     9.8  19.4
...
2023 10 23    08 00 42.0 -12 56 02   5.6830  5.6737    84.4    10.1  19.3
...
2023 10 29    07 59 19.4 -14 01 53   5.5717  5.6516    89.5    10.1  19.3
2023 10 30    07 59 02.7 -14 12 59   5.5533  5.6480    90.4    10.1  19.2
2023 10 31    07 58 45.0 -14 24 06   5.5349  5.6443    91.2    10.1  19.2
...
2023 11 06    07 56 40.4 -15 31 16   5.4265  5.6227    96.3    10.1  19.2
...
2023 11 14    07 53 01.2 -17 01 25   5.2874  5.5942   103.0     9.9  19.1
...
2023 11 29    07 43 18.2 -19 47 17   5.0532  5.5421   115.0     9.3  19.0

(MPEC 2023-U288、CBET 5308)

スレッド表示 | 古いものから 前のトピック | 次のトピック | トップ

投稿するにはまず登録を
 
© 1999 Tsutomu Seki.